Tracking 19636 objects as of 24-May-2019
HD Live streaming from Space Station
objects crossing your sky now

BEIDOU 3M8

Track BEIDOU 3M8 now!
BEIDOU 3M8 is classified as:


NORAD ID: 43246
Int'l Code: 2018-029B
Perigee: 21,520.2 km
Apogee: 21,549.8 km
Inclination: 55.2 °
Period: 773.2 minutes
Semi major axis: 27905 km
RCS: Unknown
Launch date: March 29, 2018
Source: People's Republic of China (PRC)
Launch site: Xichang Space Center, China (XSC)
aabbcc
Your satellite tracking list
Your tracking list is empty




NASA's NSSDC Master Catalog

Two Line Element Set (TLE):
1 43246U 18029B   19143.69623203 -.00000111  00000-0  10000-3 0  9996
2 43246  55.2050  28.8329 0005310 333.8017 342.8982  1.86232906  7802
Source of the keplerian elements: AFSPC